EW0734 Weather Reports


time (UTC)temp
F
wind
direction
speed
knots
gust
knots
rain 1hr
in
rain 24hr
in
rain mn
in
humidity
%
barometer
mb
20260506033525 71 0.0 2.6 0.00 0.00 0.00 55 1009.6
20260506032525 71 0.0 1.7 0.00 0.00 0.00 55 1009.6
20260506031525 71 0.0 3.5 0.00 0.00 0.00 55 1009.8
20260506030525 71 180 0.9 6.1 0.00 0.00 0.00 55 1009.7
20260506025525 71 0.0 3.5 0.00 0.00 0.00 55 1009.8
20260506024525 71 180 0.9 4.3 0.00 0.00 0.00 54 1009.8
20260506023525 71 0.0 1.7 0.00 0.00 0.00 53 1010.0
20260506022525 72 0.0 1.7 0.00 0.00 0.00 53 1010.0
20260506021525 72 0.0 0.9 0.00 0.00 0.00 52 1010.0
20260506020527 72 0.0 3.5 0.00 0.00 0.00 51 1010.0
20260506015526 72 0.0 0.0 0.00 0.00 0.00 51 1010.0
20260506014525 73 0.0 0.0 0.00 0.00 0.00 49 1009.8
20260506013526 73 0.0 1.7 0.00 0.00 0.00 48 1009.8
20260506012525 74 0.0 0.0 0.00 0.00 0.00 46 1009.7
20260506011525 74 0.0 3.5 0.00 0.00 0.00 45 1009.5
20260506010546 75 0.0 4.3 0.00 0.00 0.00 44 1009.4
20260506005526 75 0.0 3.5 0.00 0.00 0.00 44 1009.4
20260506004526 75 0.0 2.6 0.00 0.00 0.00 43 1009.1
20260506003524 76 0.0 2.6 0.00 0.00 0.00 42 1009.1
20260506002526 76 0.0 1.7 0.00 0.00 0.00 42 1009.0
20260506001545 77 0.0 3.5 0.00 0.00 0.00 40 1008.9
20260506000545 77 0.0 2.6 0.00 0.00 0.00 40 1008.8
20260505235526 77 0.0 1.7 0.00 0.00 0.00 39 1008.7
20260505234525 78 0.0 3.5 0.00 0.00 0.00 38 1008.7
20260505233525 78 0.0 0.9 0.00 0.00 0.00 37 1008.6
20260505232525 79 0.0 0.9 0.00 0.00 0.00 36 1008.7
20260505231525 79 315 0.9 4.3 0.00 0.00 0.00 35 1008.6
20260505230525 79 0.0 2.6 0.00 0.00 0.00 35 1008.6
20260505225525 80 270 0.9 5.2 0.00 0.00 0.00 33 1008.6
20260505224525 81 225 0.9 4.3 0.00 0.00 0.00 32 1008.7
20260505223544 82 293 0.9 7.0 0.00 0.00 0.00 32 1008.6
20260505222525 82 315 0.9 5.2 0.00 0.00 0.00 31 1008.4
20260505221545 82 248 0.9 4.3 0.00 0.00 0.00 33 1008.4
20260505220525 82 203 0.9 5.2 0.00 0.00 0.00 32 1008.3
20260505215525 82 0.0 1.7 0.00 0.00 0.00 32 1008.4
20260505214524 82 203 0.9 5.2 0.00 0.00 0.00 31 1008.5
20260505213545 82 270 0.9 7.0 0.00 0.00 0.00 30 1008.4
20260505212524 83 203 0.9 3.5 0.00 0.00 0.00 28 1008.2
20260505211524 84 270 1.7 7.0 0.00 0.00 0.00 30 1008.1
20260505210524 84 68 0.9 5.2 0.00 0.00 0.00 30 1008.3
20260505205524 83 90 0.9 2.6 0.00 0.00 0.00 29 1008.2
20260505204525 84 90 1.7 7.8 0.00 0.00 0.00 29 1008.4
20260505203526 84 68 1.7 9.6 0.00 0.00 0.00 28 1008.3
20260505202525 85 203 1.7 4.3 0.00 0.00 0.00 29 1008.3
20260505201524 85 270 1.7 4.3 0.00 0.00 0.00 28 1008.3
20260505200525 85 203 1.7 7.8 0.00 0.00 0.00 29 1008.4
20260505195525 87 68 1.7 9.6 0.00 0.00 0.00 29 1008.6
20260505194525 87 90 0.9 7.0 0.00 0.00 0.00 28 1008.5
20260505193524 87 90 0.9 5.2 0.00 0.00 0.00 30 1008.7
20260505192545 86 135 1.7 10.4 0.00 0.00 0.00 29 1008.9
20260505191524 86 90 0.9 6.1 0.00 0.00 0.00 30 1009.0
20260505190524 87 90 1.7 7.8 0.00 0.00 0.00 28 1009.3
20260505185524 87 90 0.9 3.5 0.00 0.00 0.00 33 1009.4
20260505184525 87 90 1.7 8.7 0.00 0.00 0.00 30 1009.7
20260505183524 87 158 0.9 7.8 0.00 0.00 0.00 31 1009.7
20260505182524 86 203 0.9 5.2 0.00 0.00 0.00 31 1009.7
20260505181524 86 270 0.9 5.2 0.00 0.00 0.00 31 1009.8
20260505180530 86 0.0 2.6 0.00 0.00 0.00 35 1009.9
20260505175524 85 203 0.9 7.0 0.00 0.00 0.00 34 1010.2
20260505174524 85 90 0.9 3.5 0.00 0.00 0.00 36 1010.1
20260505173524 85 68 1.7 6.1 0.00 0.00 0.00 33 1010.2
20260505172545 85 90 0.9 6.1 0.00 0.00 0.00 33 1010.3
20260505171525 85 180 0.9 6.1 0.00 0.00 0.00 33 1010.4
20260505170544 85 90 0.9 3.5 0.00 0.00 0.00 35 1010.3
20260505165524 84 113 0.9 5.2 0.00 0.00 0.00 35 1010.7
20260505164526 83 113 0.9 3.5 0.00 0.00 0.00 36 1010.9
20260505163525 83 90 0.9 4.3 0.00 0.00 0.00 37 1010.9
20260505162524 83 180 1.7 6.1 0.00 0.00 0.00 38 1011.2
20260505161525 83 203 0.9 2.6 0.00 0.00 0.00 41 1011.3
20260505160524 82 180 0.9 3.5 0.00 0.00 0.00 40 1011.5
20260505152524 81 158 0.9 4.3 0.00 0.00 0.00 44 1011.6
20260505151524 79 0.0 2.6 0.00 0.00 0.00 46 1011.8
20260505150524 79 90 0.9 2.6 0.00 0.00 0.00 44 1011.8
20260505140526 74 90 0.9 1.7 0.00 0.00 0.00 50 1011.7
20260505124524 64 0.0 1.7 0.00 0.00 0.00 65 1012.1
20260505123525 63 0.0 1.7 0.00 0.00 0.00 66 1012.1
20260505122527 62 0.0 4.3 0.00 0.00 0.00 67 1012.1
20260505121526 61 0.0 1.7 0.00 0.00 0.00 68 1012.0
20260505120525 61 0.0 2.6 0.00 0.00 0.00 69 1011.9
20260505115544 60 0.0 0.9 0.00 0.00 0.00 71 1011.8
20260505114524 59 0.0 0.9 0.00 0.00 0.00 73 1011.7
20260505113526 58 0.0 0.0 0.00 0.00 0.00 76 1011.6
20260505112525 57 0.0 0.0 0.00 0.00 0.00 77 1011.6
20260505111526 57 0.0 0.0 0.00 0.00 0.00 77 1011.5
20260505110526 57 0.0 0.0 0.00 0.00 0.00 76 1011.4
20260505102026 0 0.0 0.0 0.00 0.00 0.00
20260505101545 0 0.0 0.0 0.00 0.00 0.00
20260505101023 0 0.0 0.0 0.00 0.00 0.00
20260505100544 0 0.0 0.0 0.00 0.00 0.00
20260505095525 0 0.0 0.0 0.00 0.00 0.00
20260505095042 0 0.0 0.0 0.00 0.00 0.00
20260505094521 0 0.0 0.0 0.00 0.00 0.00
20260505094024 0 0.0 0.0 0.00 0.00 0.00
20260505093024 0 0.0 0.0 0.00 0.00 0.00
20260505092543 0 0.0 0.0 0.00 0.00 0.00
20260505092022 0 0.0 0.0 0.00 0.00 0.00
20260505091525 0 0.0 0.0 0.00 0.00 0.00
20260505090524 0 0.0 0.0 0.00 0.00 0.00
20260505090043 0 0.0 0.0 0.00 0.00 0.00
20260505085520 0 0.0 0.0 0.00 0.00 0.00
20260505085025 0 0.0 0.0 0.00 0.00 0.00
20260505084024 0 0.0 0.0 0.00 0.00 0.00
20260505083531 0 0.0 0.0 0.00 0.00 0.00 71
20260505083148 56 0.0 0.0 0.00 0.00 0.00 71 1010.6
20260505082025 57 0.0 0.0 0.00 0.00 0.00 71 1010.6
20260505081025 57 0.0 0.9 0.00 0.00 0.00 72 1010.6
20260505080026 56 0.0 0.0 0.00 0.00 0.00 72 1010.5
20260505075025 56 0.0 0.0 0.00 0.00 0.00 72 1010.5
20260505074045 56 0.0 0.0 0.00 0.00 0.00 72 1010.5
20260505073025 57 0.0 0.0 0.00 0.00 0.00 72 1010.6
20260505072025 57 0.0 0.9 0.00 0.00 0.00 72 1010.5
20260505071025 57 0.0 0.0 0.00 0.00 0.00 72 1010.4
20260505070025 58 0.0 0.0 0.00 0.00 0.00 71 1010.3
20260505065026 58 0.0 0.9 0.00 0.00 0.00 70 1010.2
20260505064030 58 0.0 0.9 0.00 0.00 0.00 70 1010.1
20260505063046 58 0.0 0.9 0.00 0.00 0.00 69 1010.2
20260505062045 58 0.0 0.0 0.00 0.00 0.00 70 1010.1
20260505061026 58 0.0 0.0 0.00 0.00 0.00 70 1010.2
20260505060024 59 0.0 0.0 0.00 0.00 0.00 70 1010.1
20260505055025 59 0.0 0.9 0.00 0.00 0.00 69 1010.0
20260505054026 59 0.0 0.9 0.00 0.00 0.00 68 1009.9
20260505053025 59 0.0 0.9 0.00 0.00 0.00 68 1009.8
20260505052026 59 0.0 0.0 0.00 0.00 0.00 69 1009.8
20260505051025 59 0.0 0.9 0.00 0.00 0.00 69 1009.8
20260505041025 60 0.0 0.0 0.00 0.00 0.00 67 1009.6
20260505040031 60 0.0 0.9 0.00 0.00 0.00 66 1009.7
20260505035025 60 0.0 0.9 0.00 0.00 0.00 66 1009.7